Temperature
11 11 11 11 11 11 10 9 10 10 10 11 11 10 10 10 10 10 9 9 9 8 8 8 7 7 7 6 6 6 6 5 5 5 5 4 4 4 3 3 3 3 3 3
11 11 10 10 10 10 10 10 9 10 10 10 10 10 10 9 9 9 8 8 8 7 7 7 6 6 6 6 5 5 5 5 4 4 4 3 3 3 2 2 2 2 2 2
8 9 9 8 9 9 9 9 9 9 10 9 9 9 9 9 8 8 7 7 7 7 6 6 6 5 5 5 4 4 4 4 3 3 3 2 2 2 1 1 1 1 1 0
7 8 8 10 10 10 10 10 10 9 9 9 9 9 9 8 7 7 7 6 6 6 5 5 5 5 4 4 4 3 3 3 2 2 2 1 1 1 0 0 -0 -0 -0 -1
6 6 7 8 10 10 10 9 9 8 8 8 8 7 7 8 7 6 6 6 5 5 5 4 4 4 3 3 3 3 2 2 1 1 1 0 0 -0 -1 -1 -1 -1 -1 -1
5 6 7 9 10 11 10 8 8 7 7 7 7 5 5 7 6 6 5 5 5 4 4 4 4 3 3 3 2 2 1 1 0 0 -0 -1 -1 -1 -1 -2 -2 -2 -2 -2
5 5 7 8 9 10 9 8 8 7 7 7 6 5 6 6 5 5 5 4 4 4 3 3 3 2 2 2 1 1 0 0 -0 -1 -1 -1 -2 -2 -2 -2 -2 -3 -3 -3
4 5 7 9 9 8 7 7 7 7 6 6 6 5 5 5 4 4 4 4 3 3 3 3 2 2 1 1 1 0 -0 -1 -1 -1 -2 -2 -3 -3 -3 -3 -3 -3 -4 -3
6 7 8 9 8 8 8 7 7 6 6 5 5 4 4 4 4 4 3 3 3 2 2 2 2 1 1 0 -0 -1 -1 -2 -2 -2 -3 -3 -3 -3 -3 -4 -4 -4 -4 -4
5 6 7 7 7 7 6 6 6 5 5 4 4 4 3 3 3 3 2 2 2 2 1 1 1 1 0 -0 -1 -2 -2 -2 -3 -3 -3 -4 -4 -4 -4 -4 -5 -5 -5 -4
5 6 6 6 6 5 5 5 5 4 4 4 3 3 3 3 2 2 2 2 1 1 1 1 0 0 -0 -1 -2 -3 -3 -3 -4 -4 -4 -5 -5 -5 -5 -5 -5 -5 -5 -4
5 6 5 6 5 5 5 5 4 4 4 4 3 3 2 2 2 2 1 1 1 1 0 -0 -0 -1 -1 -2 -3 -4 -4 -4 -5 -5 -5 -5 -5 -5 -5 -5 -5 -5 -5 -5
6 6 6 5 5 5 5 4 4 4 3 3 3 2 2 2 2 1 1 1 0 -0 -0 -1 -1 -1 -2 -3 -4 -4 -5 -5 -5 -6 -6 -6 -6 -6 -6 -5 -5 -5 -5 -5
5 5 5 5 4 4 4 4 4 3 3 3 2 2 2 1 1 1 1 0 -0 -1 -1 -1 -2 -2 -2 -3 -4 -5 -5 -5 -6 -6 -6 -6 -6 -6 -6 -6 -6 -5 -5 -5
5 5 4 4 4 4 4 3 3 3 3 2 2 2 1 1 1 0 0 -0 -1 -1 -1 -1 -2 -2 -3 -4 -5 -5 -6 -6 -6 -6 -6 -6 -6 -6 -6 -6 -6 -6 -6 -5
4 4 4 4 4 3 3 3 2 2 2 2 2 1 1 0 0 0 -0 -1 -1 -2 -2 -2 -2 -3 -4 -4 -5 -6 -6 -6 -6 -6 -6 -6 -6 -6 -6 -6 -6 -6 -6 -6
3 3 3 3 3 3 2 2 2 2 2 1 1 1 0 -0 -0 -0 -1 -1 -2 -2 -2 -2 -3 -4 -4 -5 -6 -6 -6 -6 -6 -6 -6 -6 -6 -6 -6 -6 -6 -6 -6 -6
3 3 3 2 2 2 2 2 2 1 1 1 0 0 -0 -1 -1 -1 -1 -2 -2 -2 -2 -3 -4 -4 -5 -5 -6 -6 -6 -6 -6 -6 -6 -6 -6 -6 -6 -6 -6 -6 -6 -6
2 2 2 2 2 2 1 1 1 1 0 0 -0 -1 -1 -1 -1 -2 -2 -2 -2 -3 -3 -4 -4 -5 -5 -5 -6 -6 -6 -7 -7 -6 -6 -6 -6 -6 -7 -7 -7 -7 -7 -6
2 2 2 2 1 1 1 1 0 0 -0 -1 -1 -1 -1 -2 -2 -2 -2 -3 -3 -3 -4 -4 -5 -5 -6 -6 -6 -7 -7 -7 -7 -7 -7 -7 -7 -7 -7 -7 -7 -7 -7 -7
2 1 1 1 1 1 0 -0 -0 -1 -1 -1 -2 -2 -2 -2 -2 -3 -3 -3 -3 -4 -4 -5 -5 -6 -6 -7 -7 -7 -7 -7 -7 -7 -7 -7 -7 -7 -7 -7 -7 -7 -7 -7
1 0 0 0 -0 -0 -0 -1 -1 -1 -2 -2 -2 -2 -3 -3 -3 -3 -3 -4 -4 -4 -5 -5 -6 -6 -7 -7 -7 -7 -7 -7 -8 -8 -8 -8 -8 -8 -7 -7 -7 -7 -7 -7
-0 -0 -0 -1 -1 -1 -1 -1 -1 -2 -2 -2 -3 -3 -3 -3 -3 -4 -4 -4 -5 -5 -6 -6 -6 -7 -7 -7 -7 -7 -8 -8 -8 -8 -8 -8 -8 -8 -7 -7 -7 -7 -7 -7
-1 -1 -1 -1 -1 -2 -2 -2 -2 -2 -3 -3 -3 -3 -3 -4 -4 -4 -4 -5 -5 -5 -6 -6 -6 -7 -7 -7 -8 -8 -8 -8 -8 -8 -8 -8 -8 -8 -8 -8 -8 -8 -8 -8
-1 -1 -2 -2 -2 -2 -2 -3 -3 -3 -3 -3 -3 -3 -3 -4 -4 -4 -5 -5 -5 -6 -6 -6 -7 -7 -7 -8 -8 -8 -8 -9 -9 -9 -8 -8 -8 -8 -8 -8 -8 -8 -8 -8
-2 -2 -2 -2 -3 -3 -3 -3 -4 -4 -4 -4 -4 -4 -4 -4 -4 -5 -5 -5 -6 -6 -6 -7 -7 -8 -8 -8 -8 -9 -9 -9 -9 -8 -8 -8 -8 -8 -8 -8 -8 -8 -8 -8
-2 -2 -3 -3 -3 -3 -4 -4 -4 -4 -4 -5 -5 -5 -5 -5 -5 -5 -6 -6 -6 -7 -7 -7 -8 -8 -9 -9 -9 -9 -9 -9 -9 -9 -8 -8 -8 -8 -8 -8 -8 -8 -8 -8
Wind_Speed
7 6 5 7 10 9 10 10 11 10 11 13 8 4 1 1 3 4 4 5 5 6 6 7 7 8 7 8 8 8 8 9 10 10 10 10 10 11 10 10 11 11 12 13
4 5 6 10 14 13 12 10 11 12 13 5 1 3 3 3 3 3 4 5 7 7 8 8 8 8 8 9 9 8 9 10 10 10 10 10 11 11 11 11 11 11 12 13
4 4 7 10 11 8 7 7 8 9 5 2 2 2 1 1 1 2 5 7 8 8 8 9 9 8 8 9 9 9 10 11 11 11 11 11 11 11 12 12 12 12 12 13
2 1 8 9 3 4 4 2 2 3 3 2 1 2 2 3 1 4 6 7 8 8 8 8 8 8 9 9 9 10 10 11 11 11 12 12 12 12 12 11 11 12 13 13
5 4 9 10 6 4 4 1 2 5 3 0 3 2 2 2 2 5 6 7 7 8 8 8 9 9 9 10 10 10 11 11 11 11 12 13 13 13 12 12 12 12 12 13
6 5 8 8 4 0 3 3 1 4 2 1 2 4 5 5 6 8 8 7 8 8 8 9 9 9 10 11 11 12 12 12 12 12 13 14 14 14 12 11 13 13 13 12
6 6 9 8 5 3 4 5 3 3 2 1 2 6 7 7 8 8 8 9 8 8 8 9 9 9 11 12 12 13 13 13 13 12 13 14 13 12 12 13 13 13 14 13
7 7 10 4 3 5 4 3 3 2 2 4 6 8 8 8 8 8 8 8 8 8 9 9 9 10 12 14 14 14 13 14 14 13 13 12 13 13 12 13 13 13 13 13
10 9 2 3 5 4 4 3 2 3 5 6 6 7 7 7 7 8 8 8 8 9 11 10 9 9 13 16 15 15 14 15 14 14 12 11 12 14 13 11 11 12 12 12
5 5 3 5 5 4 3 4 5 5 5 4 5 7 7 7 7 8 8 9 8 10 12 13 12 11 12 14 14 14 16 16 14 14 14 12 10 11 11 11 12 12 13 13
4 2 4 4 4 5 4 4 4 3 3 3 4 5 6 6 8 8 8 8 9 10 13 15 14 13 12 12 13 14 15 15 14 12 13 13 11 11 13 11 14 15 13 12
6 5 5 4 3 3 2 2 2 2 3 3 3 5 6 7 7 8 10 10 11 12 13 15 15 15 14 12 12 14 15 14 12 12 12 12 13 14 18 19 24 25 23 21
3 3 4 3 2 2 2 2 2 2 4 5 6 6 7 7 8 9 11 12 13 14 14 15 15 15 14 12 12 13 15 15 13 12 12 13 13 14 15 16 20 22 23 24
3 3 2 2 3 3 3 3 3 4 5 6 6 7 8 9 10 11 13 13 13 14 15 15 15 16 15 13 13 14 14 17 16 12 12 13 13 13 13 15 15 12 15 21
2 3 3 3 2 2 2 2 4 6 7 7 7 8 10 11 13 14 13 13 13 14 14 14 15 16 14 13 14 14 14 12 12 12 12 12 13 12 12 13 13 13 12 14
2 1 0 1 3 4 4 5 6 8 8 9 10 11 11 12 13 14 13 12 13 15 16 15 16 16 15 14 14 13 12 21 20 14 13 13 12 12 12 12 13 12 12 12
3 2 1 2 4 5 6 6 7 9 9 11 12 13 12 12 13 14 13 11 11 13 14 15 16 15 14 13 13 12 12 15 21 16 12 13 12 12 12 12 12 12 12 14
3 2 2 3 4 6 8 8 9 10 11 12 13 12 12 13 15 16 15 13 12 12 12 13 13 13 13 12 12 11 12 12 12 13 13 12 13 12 11 12 13 13 12 12
1 1 3 5 6 7 8 9 10 10 11 11 12 13 13 13 13 14 14 12 14 16 12 10 20 16 13 15 18 11 12 14 14 13 12 16 15 11 11 11 11 12 12 11
2 3 6 7 8 8 9 11 11 12 12 11 12 13 14 14 13 13 12 11 11 11 12 15 14 11 12 14 19 12 12 14 14 13 12 12 12 12 11 11 12 11 11 10
6 7 8 9 10 10 11 11 12 13 13 12 12 14 16 15 12 11 11 12 11 10 12 18 12 10 11 15 19 11 12 13 13 12 12 12 12 12 11 11 11 10 10 9
7 8 10 10 11 12 11 10 11 13 14 13 13 13 14 14 13 11 10 10 11 15 12 9 8 15 20 22 11 11 12 13 12 11 11 11 11 12 11 11 11 10 9 8
8 9 10 11 12 12 13 11 11 12 13 14 14 14 14 13 10 10 12 8 8 16 13 8 16 25 28 15 10 11 12 13 12 12 11 11 11 11 11 11 10 9 8 8
9 10 10 10 10 11 14 14 12 11 12 13 13 13 12 11 10 8 9 14 18 20 11 15 24 26 24 10 10 11 11 12 12 11 11 11 11 10 10 10 10 8 8 8
10 10 10 10 10 11 12 12 12 12 11 10 11 11 10 8 9 10 9 10 16 18 10 15 22 24 15 10 11 11 11 12 13 12 11 11 10 10 10 9 9 8 7 6
10 9 10 10 10 10 10 10 10 10 10 11 10 9 8 7 9 9 8 10 12 16 12 9 11 14 10 10 11 12 11 12 13 11 11 11 11 10 9 9 9 7 6 5
9 9 8 9 9 8 8 9 10 11 10 10 12 10 9 8 8 8 9 9 9 9 9 9 9 9 10 10 11 11 11 10 10 10 10 10 9 9 9 8 7 6 5 5
Wind_Direction
241 249 239 243 252 241 223 215 230 246 249 267 272 246 219 50 38 38 19 355 336 314 302 300 301 302 301 300 302 304 306 304 298 296 296 296 295 293 289 285 282 279 278 276
273 276 282 275 262 249 241 230 234 257 270 277 147 115 82 62 51 25 339 321 314 309 308 304 299 296 298 299 299 302 301 297 297 300 300 298 295 293 290 287 284 281 278 277
260 312 342 279 254 226 220 219 209 227 236 126 89 72 86 119 49 326 306 302 303 302 295 292 290 290 294 293 297 300 298 297 299 300 298 294 293 293 290 289 286 283 280 278
193 54 249 246 243 212 214 256 196 141 113 102 185 263 228 162 41 308 299 297 296 293 293 291 289 293 294 297 301 301 299 297 296 295 293 292 292 291 291 289 287 286 284 280
160 221 275 287 273 200 171 187 88 122 114 17 289 320 286 222 287 284 285 285 285 286 290 293 296 300 305 306 306 305 302 298 296 294 293 294 294 293 292 292 291 287 284 284
159 196 242 251 257 190 95 217 148 126 121 339 33 351 282 282 304 299 297 297 300 301 303 305 306 308 309 308 307 304 300 298 295 292 290 292 292 292 291 290 291 291 287 283
178 214 258 255 258 140 190 232 162 139 158 208 220 235 259 286 289 285 289 293 298 302 302 299 302 308 307 306 303 300 299 298 296 292 290 291 291 290 292 293 292 290 288 287
166 200 248 249 143 160 187 136 142 174 227 249 252 264 276 282 284 292 297 301 306 307 304 302 303 306 306 305 303 302 300 300 299 295 294 298 293 294 292 292 294 293 292 292
190 207 221 97 119 122 129 147 194 231 253 260 267 275 283 287 294 298 299 302 303 303 303 303 301 297 299 303 305 305 304 302 301 298 294 292 292 295 297 293 293 294 294 295
215 242 151 117 118 128 161 191 220 235 249 253 266 281 291 294 299 302 301 303 303 306 307 308 306 299 292 298 303 304 305 305 303 302 302 296 291 291 293 294 293 293 294 295
230 225 126 157 179 196 203 203 209 231 238 256 281 294 295 297 298 298 299 299 300 301 303 304 306 304 300 300 303 304 304 304 304 301 300 301 295 290 292 284 286 292 293 293
226 209 182 217 214 193 195 236 249 277 304 312 301 291 294 293 292 295 300 302 303 301 301 303 305 305 305 303 302 304 307 307 305 303 301 300 301 300 294 293 296 296 296 295
195 179 176 198 204 209 245 261 268 281 295 302 300 290 291 292 292 297 300 301 301 300 300 302 303 305 307 306 303 300 301 304 304 302 302 302 302 302 304 304 300 298 298 299
161 147 173 201 230 266 274 282 292 297 291 282 281 287 289 290 292 295 295 295 295 297 298 300 302 304 306 306 303 299 299 302 304 300 299 299 298 298 299 302 306 303 300 300
187 176 201 231 277 314 324 326 319 307 298 293 286 286 287 290 293 293 293 294 295 295 297 300 302 304 306 305 302 300 301 302 301 299 298 297 296 296 296 296 298 300 301 301
233 232 174 359 334 329 329 321 305 294 292 290 292 289 285 284 286 289 290 291 294 299 301 301 300 301 303 302 300 301 301 304 309 304 301 300 298 297 297 297 298 299 299 300
208 235 264 311 311 307 298 286 276 278 282 285 285 287 289 291 292 293 293 289 283 285 290 293 295 298 299 297 298 302 301 303 306 305 299 298 298 297 297 297 298 298 297 298
178 188 211 250 269 283 289 286 280 278 278 280 285 288 289 290 293 296 298 299 297 293 287 285 289 299 297 298 301 300 301 301 300 299 300 300 300 298 298 298 298 299 301 302
82 306 288 281 274 272 275 280 281 278 278 283 285 287 286 286 285 288 294 298 301 304 300 292 306 311 301 303 310 302 301 302 303 303 303 304 305 300 299 300 301 301 301 301
308 295 291 287 282 275 276 280 282 284 284 282 283 287 290 289 286 288 291 289 284 283 290 299 303 298 300 303 309 305 305 306 307 308 306 304 304 304 303 302 301 300 301 301
295 291 288 285 285 282 279 281 284 287 289 285 282 285 288 290 288 287 290 296 290 283 292 304 309 304 305 310 313 310 309 310 310 308 307 307 307 305 304 303 303 303 304 305
282 281 282 282 284 287 285 281 280 283 287 287 284 283 287 291 290 286 275 278 288 300 307 297 298 308 317 319 314 311 311 310 309 307 305 305 305 306 305 304 304 305 305 305
276 276 278 280 282 285 288 286 281 281 283 284 286 286 285 286 288 290 294 288 289 303 310 296 308 317 321 323 313 311 310 308 307 306 305 305 305 304 305 306 306 306 307 307
276 277 277 279 282 285 288 289 284 282 280 281 280 278 280 286 286 275 272 292 305 309 306 304 315 320 324 321 310 309 308 308 306 305 306 307 305 305 306 306 307 306 305 304
275 278 280 283 285 285 284 288 291 289 285 285 282 278 274 269 274 284 284 287 299 308 303 307 315 319 321 309 309 308 307 306 307 310 309 309 308 308 306 307 307 306 305 304
276 279 279 275 275 281 284 287 289 290 290 292 293 288 283 280 276 279 283 285 288 300 304 300 303 310 311 308 308 308 308 308 308 308 305 307 307 307 306 307 307 307 305 304
279 278 281 285 282 275 277 281 285 287 287 288 292 292 289 287 286 285 286 290 293 294 295 296 300 304 306 307 309 308 307 306 306 305 305 306 306 306 305 304 305 305 305 305
Height
1516 1514 1515 1515 1514 1513 1516 1516 1517 1508 1506 1499 1497 1497 1498 1498 1498 1497 1496 1495 1493 1491 1488 1484 1480 1477 1473 1469 1465 1460 1456 1451 1447 1442 1436 1431 1426 1421 1415 1410 1405 1399 1394 1389
1515 1512 1513 1512 1505 1505 1506 1506 1505 1502 1499 1494 1495 1495 1496 1496 1496 1495 1494 1492 1490 1486 1483 1479 1475 1471 1467 1463 1459 1455 1450 1445 1440 1434 1429 1423 1418 1412 1406 1400 1395 1389 1384 1379
1521 1517 1515 1511 1497 1497 1497 1495 1496 1498 1496 1494 1495 1495 1495 1495 1494 1493 1491 1489 1485 1482 1478 1474 1470 1466 1462 1457 1453 1448 1443 1438 1432 1426 1420 1415 1409 1402 1396 1390 1384 1379 1373 1369
1523 1519 1521 1498 1490 1490 1491 1492 1491 1492 1494 1494 1494 1494 1493 1492 1492 1490 1487 1484 1481 1477 1473 1469 1465 1461 1456 1451 1446 1441 1436 1430 1424 1418 1412 1406 1399 1393 1387 1381 1375 1369 1363 1359
1524 1522 1513 1496 1488 1486 1488 1491 1491 1492 1493 1493 1493 1492 1491 1490 1488 1486 1483 1480 1476 1472 1468 1464 1460 1455 1450 1445 1440 1434 1428 1422 1416 1410 1403 1397 1390 1384 1378 1372 1365 1360 1354 1349
1520 1518 1513 1492 1484 1483 1487 1492 1492 1491 1491 1491 1490 1493 1490 1486 1484 1481 1478 1475 1471 1467 1463 1459 1454 1449 1444 1438 1433 1427 1420 1414 1408 1402 1396 1389 1382 1375 1369 1364 1356 1350 1345 1340
1514 1514 1501 1486 1482 1483 1493 1491 1490 1489 1489 1489 1488 1489 1486 1483 1480 1477 1474 1470 1466 1462 1458 1454 1449 1444 1438 1432 1426 1419 1412 1406 1400 1394 1387 1380 1373 1367 1361 1354 1347 1341 1335 1330
1509 1510 1498 1480 1480 1484 1486 1486 1487 1487 1487 1486 1484 1482 1480 1478 1475 1472 1468 1465 1461 1457 1452 1448 1444 1438 1431 1424 1418 1411 1404 1397 1390 1384 1378 1371 1364 1357 1351 1345 1338 1332 1326 1320
1488 1486 1480 1478 1479 1482 1483 1484 1485 1484 1483 1482 1480 1478 1476 1473 1470 1467 1464 1460 1456 1451 1446 1441 1437 1432 1424 1417 1410 1403 1395 1388 1381 1374 1368 1362 1356 1349 1342 1336 1331 1324 1319 1313
1481 1478 1478 1479 1480 1481 1482 1482 1481 1481 1479 1478 1476 1473 1471 1469 1466 1462 1459 1455 1450 1445 1439 1434 1429 1424 1418 1410 1403 1395 1387 1379 1372 1365 1358 1352 1347 1341 1335 1328 1323 1317 1312 1306
1477 1476 1477 1479 1479 1479 1479 1478 1477 1476 1475 1473 1471 1469 1467 1464 1461 1458 1454 1449 1445 1439 1433 1427 1421 1415 1410 1403 1395 1387 1378 1371 1364 1357 1350 1343 1337 1333 1327 1321 1318 1312 1306 1301
1474 1472 1474 1475 1475 1475 1475 1474 1473 1472 1470 1469 1467 1465 1463 1460 1456 1452 1448 1443 1438 1433 1427 1420 1414 1407 1401 1395 1387 1379 1370 1363 1356 1349 1342 1336 1329 1322 1318 1315 1309 1305 1300 1295
1468 1469 1470 1471 1472 1471 1471 1470 1469 1468 1467 1466 1464 1462 1458 1455 1451 1447 1443 1438 1432 1426 1420 1413 1406 1399 1393 1386 1379 1372 1364 1356 1349 1342 1335 1329 1322 1316 1309 1304 1301 1296 1292 1287
1466 1467 1468 1469 1469 1468 1468 1467 1466 1465 1464 1462 1460 1457 1454 1450 1446 1441 1437 1431 1426 1419 1413 1406 1399 1392 1385 1378 1371 1364 1357 1350 1343 1335 1329 1323 1317 1311 1305 1298 1292 1286 1283 1279
1464 1465 1466 1466 1466 1465 1465 1464 1463 1462 1460 1458 1455 1452 1448 1444 1439 1434 1430 1424 1418 1411 1405 1398 1391 1384 1378 1371 1364 1356 1349 1342 1335 1328 1323 1317 1311 1305 1299 1293 1287 1281 1275 1271
1462 1463 1463 1463 1463 1463 1462 1461 1460 1458 1456 1453 1450 1446 1442 1438 1432 1427 1422 1417 1411 1404 1397 1390 1383 1376 1370 1363 1356 1349 1342 1335 1329 1322 1316 1310 1304 1299 1293 1287 1281 1276 1270 1266
1460 1460 1460 1461 1461 1460 1459 1458 1457 1454 1451 1447 1444 1440 1435 1430 1424 1419 1414 1409 1403 1397 1391 1384 1376 1369 1362 1356 1349 1341 1334 1328 1322 1316 1310 1304 1298 1292 1287 1281 1276 1270 1265 1261
1457 1458 1459 1459 1458 1457 1455 1454 1451 1448 1445 1441 1437 1432 1427 1422 1417 1411 1405 1399 1393 1387 1382 1376 1369 1361 1355 1349 1342 1335 1328 1321 1315 1310 1303 1298 1292 1286 1281 1276 1270 1265 1259 1255
1456 1456 1456 1456 1455 1453 1451 1448 1445 1442 1438 1434 1429 1424 1419 1414 1409 1403 1397 1391 1385 1378 1372 1367 1361 1355 1348 1342 1335 1328 1322 1316 1309 1303 1297 1291 1286 1280 1275 1270 1265 1260 1255 1250
1454 1453 1452 1451 1449 1447 1444 1441 1438 1434 1430 1426 1421 1415 1410 1405 1400 1395 1389 1383 1379 1372 1365 1359 1353 1347 1341 1334 1328 1322 1316 1310 1303 1297 1291 1285 1280 1275 1270 1264 1259 1255 1250 1245
1450 1449 1447 1445 1443 1440 1438 1434 1430 1425 1421 1417 1413 1407 1401 1396 1392 1387 1381 1374 1370 1365 1359 1353 1347 1341 1334 1328 1322 1316 1310 1303 1297 1291 1285 1280 1275 1269 1264 1259 1255 1250 1246 1242
1446 1444 1441 1439 1436 1432 1429 1426 1422 1417 1412 1407 1403 1398 1393 1387 1383 1378 1374 1369 1362 1357 1352 1346 1340 1334 1328 1322 1316 1310 1303 1297 1291 1286 1280 1275 1270 1264 1259 1255 1250 1246 1242 1238
1439 1437 1434 1431 1428 1423 1419 1416 1412 1408 1403 1398 1394 1389 1385 1380 1375 1371 1365 1361 1356 1350 1345 1339 1334 1328 1322 1315 1309 1303 1297 1291 1286 1280 1275 1270 1265 1260 1255 1251 1246 1242 1238 1234
1432 1429 1426 1423 1419 1415 1410 1405 1402 1398 1394 1389 1385 1381 1377 1372 1367 1364 1359 1354 1349 1344 1338 1333 1327 1321 1315 1309 1303 1297 1291 1286 1280 1275 1270 1265 1260 1256 1251 1247 1242 1238 1235 1231
1423 1420 1417 1413 1410 1405 1401 1397 1393 1388 1384 1380 1376 1373 1369 1365 1360 1355 1351 1346 1342 1336 1331 1326 1320 1315 1308 1302 1297 1291 1286 1281 1276 1271 1265 1260 1256 1251 1247 1243 1239 1235 1232 1228
1414 1411 1408 1405 1401 1397 1393 1389 1384 1380 1376 1371 1367 1364 1361 1357 1353 1348 1344 1339 1334 1329 1324 1318 1313 1307 1302 1296 1291 1286 1280 1275 1270 1265 1260 1256 1251 1247 1243 1240 1236 1233 1229 1227
1405 1402 1399 1395 1391 1388 1385 1381 1376 1372 1368 1364 1360 1356 1353 1349 1345 1341 1336 1331 1327 1322 1317 1311 1306 1301 1295 1290 1285 1280 1275 1270 1265 1260 1256 1252 1248 1244 1240 1237 1233 1230 1228 1225